sat.trackr.live / text

‹ back to catalog

CUBESAT XI-V

NORAD 28895 · 2005-043F

PAYLOAD ACTIVE UNKNOWN

§ Identity

Operator
Country
JPN
Launch date
2005-10-27
Launch site
PLMSC
Launch vehicle
Mass (kg)
RCS (m²)
0.02

Purposes: comms, tech_demo

External: N2YO · Heavens-Above · Gunter

§ Orbital elements

Epoch: 2026-05-25T03:56:46.651776Z

Period
97.79 min
Inclination
98.2961°
Eccentricity
0.0012778
Mean motion
14.72559321 rev/d
Perigee alt
643.9 km
Apogee alt
661.9 km
Semi-major
7,031.0 km
B*
1.9461e-4
RAAN
300.3072°
Arg perigee
279.1709°
Mean anomaly
80.8052°
Rev number
9,836

§ Raw data

CUBESAT XI-V1 28895U 05043F   26145.16442884  .00001185  00000+0  19461-3 0  99972 28895  98.2961 300.3072 0012778 279.1709  80.8052 14.72559321 98362

JSON: /api/v1/satellites/28895 · /tle

For live sub-satellite position, see the globe view (requires WebGL).

§ Visibility from observer

Set your observer location to see the next 7 days of passes ≥ 10°. The values pass through the URL so the page stays shareable.

No JS? Fill the form by hand. The geolocation button needs JavaScript.

§ Radio — SatNOGS DB

ModeDescriptionDownlinkUplink
CW Mode U CW BEACON 437.463 MHz
AFSK Mode U TLM (inactive) 437.345 MHz

2 transmitters · refreshed weekly from db.satnogs.org